[[{"header":{"parameterUnit":"m.s-1","parameterCategory":1,"la1":30.2991,"la2":30.254,"lo1":-89.0895,"lo2":-89.0444,"dy":0.0017,"dx":0.0017,"nx":28,"ny":28,"refTime":"2024-03-08T09:00:00:Z","depth":0,"parameterNumber":2,"parameterNumberName":"U-component_of_WINDS"},"data":[0,0,0,0,0,0,0,0,0,0,0,0,0,0,0,0,0,0,0,0,0,0,0,0,0,0,0,0,0,0,0,0,0,0,0,0,0,0,0,0,0,0,0,0,0,0,0,0,0,0,0,0,0,0,0,0,0,0,0.804,0.804,0,0.7998,0.7998,0.7997,0.7941,0.794,0.794,0.7939,0.7897,0.7897,0.7897,0,0,0,0,0,0,0,0,0,0,0,0,0,0.8074,0.8073,0.804,0.804,0.8039,0.7998,0.7998,0.7997,0.7942,0.794,0.7939,0.7938,0.7898,0.7897,0.7897,0,0,0,0,0,0,0,0,0,0,0,0,0,0.8048,0.8073,0.804,0.8006,0.8003,0.7998,0.7998,0.7997,0.7942,0.794,0.7939,0.7938,0.7898,0.7897,0.7897,0.7923,0,0,0.7896,0.7896,0,0,0,0,0,0,0,0,0.805,0.8047,0.8012,0.8009,0.8005,0.7974,0.7994,0.7972,0.7942,0.7965,0.7939,0.7937,0.7924,0.7921,0.7917,0.7921,0.7919,0.7896,0.7896,0.7896,0.7895,0,0,0,0,0,0,0,0.8052,0.8049,0.8024,0.8011,0.8007,0.7994,0.7989,0.799,0.7953,0.7963,0.7959,0.7955,0.7922,0.7917,0.7915,0.7919,0.7896,0.7896,0.7895,0.7895,0.7943,0.7944,0,0,0,0,0,0,0.8058,0.805,0.8025,0.8022,0.8024,0.7994,0.7989,0.7985,0.7953,0.7946,0.7956,0.7952,0.7918,0.7916,0.7914,0.7943,0.7896,0.7895,0.7895,0.7941,0.7943,0.7945,0,0,0,0,0,0,0.8059,0.8056,0.8027,0.8035,0.803,0.7995,0.7992,0.7985,0.798,0.7947,0.7941,0.7958,0.7917,0.7914,0.7921,0.794,0.7895,0.7895,0.794,0.7942,0.7944,0.8,0,0,0,0,0,0,0.806,0.8057,0.8066,0.8036,0.803,0.8034,0.7993,0.7985,0.798,0.7974,0.7947,0.7942,0.7916,0.7922,0.7921,0.7939,0.7894,0.7938,0.7941,0.7943,0.7997,0.8004,0.8011,0,0,0,0,0,0.8062,0.8084,0.8067,0.8064,0.8041,0.8036,0.8032,0.8002,0.7981,0.7991,0.7969,0.7942,0.7938,0.7923,0.7921,0.794,0.7936,0.794,0.7943,0.7994,0.8003,0.8011,0,0,0,0,0,0,0.8118,0.8079,0.806,0.8073,0.8058,0.8026,0.8037,0.8013,0.8004,0.7999,0.7962,0.7957,0.7968,0.7954,0.7938,0.7964,0.7933,0.7936,0.7972,0.7981,0.7988,0.7991,0.7894,0,0,0,0,0,0.8132,0.813,0.8097,0.8111,0.8105,0.8072,0.8069,0.8047,0.803,0.8023,0.8003,0.7988,0.7983,0.7981,0.7975,0.7994,0.7988,0.8006,0.8013,0.8019,0.8023,0.8033,0.8041,0.7955,0.7955,0.7955,0,0,0.8161,0.8139,0.8141,0.8122,0.8108,0.8108,0.8067,0.8069,0.8069,0.8024,0.8029,0.8014,0.7995,0.8008,0.8013,0.7997,0.8044,0.8023,0.8028,0.8028,0.8037,0.8045,0.8052,0.7958,0.7957,0.7957,0,0,0.8213,0.8196,0.8207,0.8194,0.8172,0.8151,0.8153,0.8125,0.8113,0.8118,0.8084,0.8084,0.8076,0.8064,0.8057,0.8106,0.8081,0.8105,0.8142,0.8152,0.8159,0.8165,0.8183,0.819,0.8108,0.8108,0.8108,0,0.8252,0.825,0.8216,0.822,0.8213,0.8172,0.8183,0.8172,0.815,0.8147,0.8129,0.8119,0.8103,0.8114,0.8126,0.8121,0.8124,0.8108,0.8161,0.8166,0.8171,0.8188,0.8195,0.8111,0.8111,0.8111,0.811,0,0.8299,0.8298,0.831,0.8289,0.8284,0.8291,0.8259,0.8258,0.8236,0.8217,0.8223,0.8202,0.8191,0.8192,0.8171,0.82,0.8191,0.8167,0.8136,0.8183,0.8199,0.8205,0.8116,0.8115,0.8114,0.8113,0,0,0.8386,0.8347,0.8352,0.8343,0.8316,0.8315,0.8321,0.8311,0.8311,0.8297,0.8302,0.8297,0.8275,0.8267,0.8244,0.8253,0.8294,0.8228,0.8228,0.8243,0.8326,0.8345,0.8353,0.8277,0.8278,0.8279,0.8328,0,0.8435,0.8442,0.8412,0.8428,0.8428,0.8388,0.8394,0.8379,0.836,0.8358,0.8338,0.8335,0.8306,0.8301,0.8308,0.8288,0.8311,0.8284,0.8282,0.8283,0.829,0.8361,0.838,0.8428,0.8334,0.8335,0.8336,0,0.8492,0.8481,0.8497,0.8471,0.8469,0.8475,0.8463,0.8461,0.8443,0.8429,0.8421,0.8394,0.8399,0.8369,0.8375,0.8358,0.8355,0.8345,0.8346,0.8346,0.8313,0.8364,0.8442,0.845,0.8345,0.8344,0.8343,0,0.8556,0.8545,0.8553,0.8547,0.8515,0.852,0.8508,0.8489,0.8484,0.8474,0.8471,0.8461,0.8457,0.845,0.8422,0.8403,0.8433,0.84,0.8422,0.8423,0.8431,0.8432,0.8512,0.8428,0.8428,0.8428,0.8428,0,0.8613,0.8625,0.8582,0.8587,0.8599,0.8564,0.8578,0.8561,0.8544,0.8546,0.8512,0.8514,0.8477,0.8475,0.8453,0.8463,0.8461,0.8451,0.8445,0.8454,0.8456,0.8453,0.845,0.843,0.8429,0.8429,0.8429,0,0.8687,0.8658,0.8665,0.8635,0.8628,0.8638,0.8613,0.8617,0.8596,0.8599,0.8598,0.8566,0.8563,0.8534,0.8525,0.851,0.8528,0.8516,0.8534,0.8531,0.8556,0.8554,0.8638,0.8647,0.8557,0.8558,0.8558,0,0.8726,0.8734,0.8705,0.8704,0.8693,0.8691,0.8686,0.8653,0.865,0.863,0.8637,0.8631,0.8624,0.8621,0.8598,0.859,0.8578,0.8608,0.8577,0.8586,0.858,0.858,0.8582,0.8615,0.8616,0.8617,0.8618,0,0.8799,0.8785,0.8779,0.8769,0.8765,0.8755,0.8744,0.8745,0.8708,0.8706,0.8702,0.8697,0.8687,0.8682,0.8671,0.8658,0.8633,0.8628,0.8633,0.8643,0.8654,0.865,0.8554,0.8626,0.8625,0.8625,0.8624,0.8624,0.8857,0.8863,0.8844,0.8839,0.8827,0.8817,0.882,0.8799,0.8796,0.8785,0.8765,0.8765,0.8747,0.8729,0.8719,0.8719,0.8703,0.871,0.8712,0.8715,0.8721,0.8653,0.8716,0.8716,0.8716,0.8716,0.8715,0,0.893,0.8915,0.8911,0.8896,0.8893,0.8868,0.8854,0.8853,0.8853,0.8839,0.8833,0.8829,0.8824,0.88,0.8793,0.8797,0.8785,0.8797,0.8796,0.8794,0.8734,0.8731,0.8806,0.8806,0.8806,0.8806,0.8806,0.8806,0.8967,0.8976,0.8959,0.8962,0.8947,0.8946,0.894,0.8931,0.892,0.8917,0.8913,0.8897,0.8879,0.887,0.8865,0.8858,0.8857,0.8873,0.8863,0.8807,0.8798,0.879,0.8787,0.8873,0.8873,0.8923,0.8923,0.8923]},{"header":{"parameterUnit":"m.s-1","parameterCategory":1,"la1":30.2991,"la2":30.254,"lo1":-89.0895,"lo2":-89.0444,"dy":0.0017,"dx":0.0017,"nx":28,"ny":28,"refTime":"2024-03-08T09:00:00:Z","depth":0,"parameterNumber":3,"parameterNumberName":"V-component_of_WINDS"},"data":[0,0,0,0,0,0,0,0,0,0,0,0,0,0,0,0,0,0,0,0,0,0,0,0,0,0,0,0,0,0,0,0,0,0,0,0,0,0,0,0,0,0,0,0,0,0,0,0,0,0,0,0,0,0,0,0,0,0,4.8857,4.8859,0,4.8984,4.8985,4.8986,4.9,4.8999,4.8998,4.8997,4.9127,4.9132,4.9136,0,0,0,0,0,0,0,0,0,0,0,0,0,4.8631,4.8635,4.8857,4.8859,4.8861,4.8983,4.8985,4.8987,4.9001,4.8999,4.8998,4.8996,4.9126,4.9131,4.9137,0,0,0,0,0,0,0,0,0,0,0,0,0,4.874,4.8636,4.8857,4.8882,4.8886,4.8983,4.8985,4.8987,4.9001,4.8999,4.8997,4.8995,4.9124,4.9131,4.9138,4.9219,0,0,4.9159,4.9162,0,0,0,0,0,0,0,0,4.8734,4.8749,4.8877,4.8881,4.8885,4.8974,4.8953,4.9065,4.9001,4.8957,4.8997,4.8994,4.9078,4.9089,4.9117,4.9225,4.9231,4.916,4.9164,4.9167,4.9169,0,0,0,0,0,0,0,4.8726,4.8743,4.8907,4.8879,4.8884,4.8888,4.8901,4.8974,4.9027,4.8961,4.8962,4.8977,4.908,4.911,4.912,4.9233,4.9159,4.9166,4.917,4.9173,4.9417,4.9419,0,0,0,0,0,0,4.8714,4.8737,4.8903,4.8911,4.8803,4.8893,4.8909,4.8947,4.9026,4.9036,4.8978,4.8977,4.9099,4.9111,4.9124,4.9227,4.9167,4.9173,4.9177,4.9414,4.9417,4.942,0,0,0,0,0,0,4.8709,4.8729,4.8898,4.8824,4.8846,4.8899,4.8943,4.8951,4.8981,4.9039,4.9049,4.8999,4.9098,4.9114,4.9196,4.9231,4.9176,4.9183,4.9412,4.9415,4.9418,4.9431,0,0,0,0,0,0,4.8702,4.8727,4.8758,4.8825,4.885,4.8967,4.8945,4.8955,4.8993,4.8992,4.9061,4.9071,4.9098,4.9185,4.9203,4.924,4.9188,4.9409,4.9413,4.9417,4.9428,4.9434,4.944,0,0,0,0,0,4.8694,4.8756,4.8759,4.8779,4.889,4.8969,4.8983,4.9012,4.8996,4.9028,4.9065,4.9069,4.9224,4.9193,4.9213,4.9253,4.9407,4.9412,4.9417,4.9425,4.9433,4.944,0,0,0,0,0,0,4.8692,4.8765,4.877,4.8855,4.8905,4.8971,4.9012,4.902,4.9077,4.9074,4.9107,4.9123,4.9203,4.9236,4.9201,4.9337,4.9314,4.9323,4.9313,4.9321,4.9328,4.9319,4.9194,0,0,0,0,0,4.8701,4.8758,4.882,4.8889,4.8914,4.8959,4.8994,4.9012,4.9066,4.9088,4.9131,4.9184,4.9246,4.9285,4.9344,4.9432,4.9448,4.9469,4.9475,4.948,4.9489,4.954,4.9551,4.9437,4.9437,4.9436,0,0,4.8721,4.8768,4.8802,4.889,4.8931,4.8991,4.8977,4.904,4.9086,4.9098,4.9178,4.9211,4.9273,4.9358,4.9398,4.9388,4.9524,4.9487,4.949,4.9496,4.9546,4.9557,4.9567,4.944,4.9439,4.9439,0,0,4.8788,4.8829,4.8892,4.8934,4.8997,4.9026,4.9041,4.9106,4.9129,4.921,4.9221,4.9275,4.9379,4.9423,4.9459,4.9544,4.955,4.9562,4.9596,4.9645,4.9654,4.9662,4.9695,4.9706,4.957,4.957,4.957,0,4.8805,4.8895,4.8924,4.8988,4.9026,4.904,4.9105,4.9144,4.9223,4.9251,4.9238,4.937,4.9412,4.9509,4.953,4.9557,4.9577,4.9555,4.965,4.9659,4.9667,4.9699,4.971,4.9571,4.9571,4.9571,4.9571,0,4.8914,4.8976,4.902,4.9097,4.914,4.9204,4.9243,4.9284,4.9298,4.9329,4.9412,4.9463,4.9534,4.9558,4.9572,4.9658,4.965,4.9643,4.9621,4.9679,4.9709,4.9721,4.9573,4.9572,4.9572,4.9572,0,0,4.8984,4.9076,4.9091,4.9127,4.9198,4.9247,4.9312,4.9381,4.9417,4.9471,4.9528,4.9615,4.961,4.9651,4.967,4.9714,4.9781,4.9702,4.9704,4.9717,4.9881,4.9887,4.99,4.9784,4.9787,4.9789,4.9876,0,4.9061,4.9177,4.9205,4.9305,4.9365,4.9379,4.9436,4.9486,4.9517,4.9572,4.9606,4.9669,4.9656,4.9682,4.9725,4.9763,4.9814,4.9757,4.9839,4.9842,4.9826,4.9916,4.9922,5.0002,4.9888,4.989,4.9892,0,4.9167,4.9224,4.933,4.9394,4.942,4.9471,4.9537,4.9589,4.9647,4.9667,4.9713,4.9728,4.9798,4.9771,4.9869,4.9829,4.9864,4.9888,4.9892,4.9903,4.9872,4.9931,5.0028,5.0041,4.991,4.9909,4.9907,0,4.921,4.9313,4.939,4.942,4.9497,4.9532,4.9566,4.9622,4.9662,4.972,4.9747,4.9812,4.9849,4.9899,4.9932,4.9909,5.0029,5.0003,5.0048,5.0048,5.0075,5.0073,5.0182,5.0093,5.0093,5.0093,5.0093,0,4.9294,4.9359,4.9411,4.9459,4.9532,4.9564,4.9636,4.967,4.972,4.9776,4.9791,4.9843,4.9882,4.994,4.9966,5.0045,5.0061,5.008,5.0086,5.008,5.0078,5.0105,5.0101,5.0096,5.0096,5.0095,5.0094,0,4.9356,4.9393,4.9478,4.9544,4.9562,4.9614,4.967,4.9718,4.9749,4.982,4.9838,4.9887,4.9956,4.9994,5.008,5.0098,5.0187,5.0189,5.0167,5.017,5.0214,5.0211,5.0346,5.0367,5.0262,5.0263,5.0264,0,4.9408,4.9459,4.953,4.9568,4.9603,4.9664,4.9705,4.9738,4.9781,4.9851,4.9891,4.996,5.0018,5.0128,5.0173,5.0239,5.0245,5.0288,5.0255,5.0248,5.0249,5.0246,5.0252,5.0294,5.0295,5.0296,5.0296,0,4.9499,4.9515,4.9573,4.9639,4.9688,4.9741,4.9794,4.9824,4.9867,4.9914,4.9985,5.0029,5.0118,5.0188,5.0258,5.0294,5.0304,5.0306,5.0321,5.0316,5.0302,5.0312,5.0185,5.0303,5.0303,5.0302,5.0302,5.0302,4.9559,4.9605,4.9663,4.9728,4.9772,4.9821,4.9869,4.9907,4.9966,5.0041,5.0057,5.0132,5.019,5.0286,5.0323,5.0384,5.0375,5.0396,5.0401,5.0406,5.0409,5.029,5.0396,5.0396,5.0396,5.0396,5.0396,0,4.9652,4.969,4.975,4.9823,4.9875,4.9878,4.9937,4.9981,5.0047,5.0099,5.0156,5.0239,5.0307,5.0356,5.0426,5.0465,5.0471,5.0483,5.0481,5.049,5.0411,5.0393,5.0477,5.0477,5.0477,5.0477,5.0477,5.0477,4.9707,4.9786,4.9809,4.991,4.9948,5.0021,5.0055,5.0101,5.0144,5.0235,5.0292,5.0323,5.0376,5.045,5.0513,5.0526,5.0552,5.0564,5.0577,5.0504,5.0495,5.0487,5.047,5.0568,5.0569,5.0651,5.0652,5.0653]}]]